Location: Grandview
(34.8900°N, 117.1058°W)
Time: 01:23:33
(UTC-08:00)

Tiangong 1 - Pass Details

Date: 08 October 2017
Orbit: 275 x 302 km, 42.8° (Epoch: 12 December)

Event Time Altitude Azimuth Distance (km) Brightness Sun altitude
Rises 18:45:44 0° 273° (W) 2,082 7.3 -5.6°
Reaches altitude 10° 18:48:00 10° 289° (WNW) 1,234 4.9 -6.1°
Maximum altitude 18:50:17 23° 345° (NNW) 745 2.7 -6.6°
Drops below altitude 10° 18:52:31 10° 41° (NE) 1,205 3.2 -7.0°
Enters shadow 18:53:24 - 49° (NE) 1,520 3.6 -7.2°
